Погода Красная Гора

Погода Красная Гора : погода сейчас, прогноз погоды и архив. Всё, что Вы хотите узнать о погоде Красная Гора!

Хотите узнать прогноз погоды Красная Гора? Тогда Вам сюда: Погода Красная Гора

Поиск расширенной информации на нашем сайте:

Другие новости

Новости СМИ2

Главная страница сайта

Новости сайта

02.10.2013

Напоминаем, что на нашем новом сайте вы можете получить высокодетализированные прогнозы погоды по пунктам России, СНГ и мира (включающие важные для авиации метеовеличины, такие как направление и скорость ветра, видимость, явления погоды, количество и форма облачности, нижняя и верхняя граница облачности), а также ознакомиться с разнообразными материалами по авиационной метеорологии и подборкой полезных ссылок на эту тему.

Сайт Метеоцентр.Азия посвящён разработке технологий оптимизации авиаметеорологического обслуживания, включая проектирование и перспективное создание нескольких автоматизированных авиаметеорологических систем:
- система выпуска высокодетальных прогностических карт явлений погоды для нижнего воздушного пространства по России и ближнему зарубежью;
- система верификации прогнозов TAF (выпускаемых синоптиками официальных АМСГ РФ и ближнего зарубежья) и AUTOTAF (выпускаемых сайтом Метеоцентр.Азия) - выявление ошибок, онлайн-сопоставление с фактической погодой METAR, автоматическое внесение коррективов в прогнозы при резком отклонении фактической погоды от прогноза, подсчёт оправдываемости прогнозов по элементам и в целом;
- система обработки, анализа и отображения авиаметеорологической информации для применения провайдерами метеорологической информации.

Рекомендуем: Золотая инвестиционная монета буффало.

Погода Красная Гора - сегодня

Время (UTC), дата Ветер
(°,м/с) 
Видим.   Явления Облачность Т
(°С)
Тd
(°С)
f(%) Тe
(°С)
Pmin
(гПа)
dP
(гПа)
Po
(мм)
O2
(г/м3)
Тmin Tmax R s Состояние
почвы
15 25.02.17 220 (ЮЗ) 4{11}  10 км    6/3 600 м кучево-дожд., средняя 
[Cb cap|Ac trans]
-0.7 -4.5 75 -3  1008.6  743  300           
18 25.02.17 240 (ЮЗ) 4{10}  11000 м    3/0 средняя 
[Ac trans]
-1.4 -4.3 81 -4  1010  1.4  744  302    +1.6       
21 25.02.17 250 (З) 5{10}  11000 м    8/0 средняя 
[Ac trans]
-2 -4.6 82 -5  1011.9  1.7  745  303           
00 26.02.17 250 (З) 3{11}  11000 м    ясно 
-2.9 -5.3 83 -5  1014.4  2.4  747  305           
03 26.02.17 230 (ЮЗ) 11000 м    ясно 
-3.7 -5.9 85 -6  1015.9  1.4  748  306  -3.8         
06 26.02.17 210 (ЮЗ) 10 км    6/0 средняя, верхняя 
[Ac trans|Ci fib]
-3.9 -6.1 85 -6  1016.2  0.3  748  306  -4.3      <0.5  мокрый или
старый снег
10-40% 
09 26.02.17 190 (Ю) 10 км    9/0 средняя 
[As trans]
-1.1 -4.6 77 -4  1015.5  -0.5  748  303           
12 26.02.17 190 (Ю) 5{11}  10 км  в посл. час ливневой снег  10/8 400 м кучево-дожд., средняя 
[Cb cap|As op]
+0.1 -2.6 82 -3  1012.6  -2.7  746  301           
15 26.02.17 190 (Ю) 5{12}  4000 м  слаб. снег{ливн. осадки}  10/10 300 м 
[Frnb|Ns]
-0.2 -0.8 96 -3  1009.7  -2.9  743  300         
18 26.02.17 200 (Ю) 5{12}  8000 м  дымка{ливн. осадки, снег}  10/10 300 м 
[St]
+0.6 -0.8 90 -2  1008.7  -1  743  299    +0.9     
21 26.02.17 210 (ЮЗ) 7000 м  дымка  10/10 270 м 
[St]
+0.9 -0.2 92 -1  1007.6  -1  742  298           
00 27.02.17 210 (ЮЗ) 7000 м  дымка  10/10 240 м 
[St]
+0.8 -0.3 92 -1  1007.2  -0.4  742  298           
03 27.02.17 220 (ЮЗ) 6000 м  дымка  10/10 240 м 
[St]
+1.1 +0.3 94 1007.4  0.2  742  298  +0.6    0.3     
06 27.02.17 230 (ЮЗ) 4000 м  в посл. час ливневой дождь  10/8 400 м кучево-дожд., средняя 
[Cb cap|As op]
+1.7 +0.9 94 1008.6  1.2  743  297  +0.6    <0.5  мокрый или
старый снег
10-40% 
09 27.02.17 240 (ЮЗ) 4000 м  дымка  10/10 270 м 
[St]
+3 +2.2 94 +1  1010.1  1.5  744  296           
12 27.02.17 240 (ЮЗ) 10 км    10/6 270 м кучево-дожд., средняя 
[Cb cap|As op]
+4.2 +2.5 89 +3  1011.2  1.4  745  295           
15 27.02.17 230 (ЮЗ) 4000 м  дымка  10/8 400 м кучево-дожд., средняя 
[Cb cap|As op]
+4.2 +3 92 +4  1012.8  1.6  746  296         
18 27.02.17 210 (ЮЗ) 4000 м  дымка  10/10 210 м 
[St]
+3.6 +3.1 97 +3  1014.2  1.3  747  297    +4.5       
21 27.02.17 190 (Ю) 3000 м  дымка  10/10 210 м 
[St]
+3.3 +2.8 97 +4  1015.3  1.1  748  297           
00 28.02.17 130 (ЮВ) 1600 м  дымка  10/10 210 м 
[St]
+2.9 +2.6 98 +4  1015.7  0.2  748  298           
03 28.02.17 140 (ЮВ) 0800 м  туман  ?/?  
+2.9 +2.9 100 +2  1015.4  -0.3  748  298  +2.8         
06 28.02.17 140 (ЮВ) 4000 м  дымка{туман}  8/0 средняя, верхняя 
[Ac trans|Ci fib]
+2.7 +1.9 94 +1  1015.4  748  298  +2.6      <0.5  мокрый или
старый снег
10-40% 
09 28.02.17 140 (ЮВ) 4{10}  10 км    6/0 верхняя 
[Ci fib]
+6.5 +3.4 81 +5  1014.3  -0.8  747  294           
12 28.02.17 150 (ЮВ) 7-12{12}  10 км    6/0 верхняя 
[Ci fib]
+9.8 +1.4 56 +8  1012.3  -1.8  746  290           
15 28.02.17 130 (ЮВ) 5{13}  10 км    8/0 средняя, верхняя 
[Ac trans|Ci fib]
+8.4 +2.2 65 +7  1009.8  -2.5  744  290           
Время (UTC), дата Ветер
(°,м/с) 
Видим.   Явления Облачность Т
(°С)
Тd
(°С)
f(%) Тe
(°С)
Pmin
(гПа)
dP
(гПа)
Po
(мм)
O2
(г/м3)
Тmin Tmax R s Состояние
почвы

Для получения пояснительной информации подведите курсор к названию столбца.

ПОГОДА Красная Гора - архив

Всё, что Вы хотите узнать о погоде Красная Гора - удобно и подробно!

Выберите нужную дату (начиная с 1 января 2015* года) и нажмите кнопку "Найти".
Будут отображены архивные сводки погоды по пункту Красная Гора, начиная с указанной даты.


Отображать данные в формате CSV (для использования в таблицах Excel)


Внимание! Наш архив погоды предназначен исключительно для личного некоммерческого использования в познавательных целях. Если Вам необходимы официальные справки о состоянии погоды (для производственных, юридических, коммерческих и т.п. целей), обращайтесь в органы Росгидромета.

*Примечание: данная дата относится к архиву по метеостанциям СССР (Россия, СНГ, Балтия).
Архив по метеостанциям Зарубежной Европы и Азии (кроме Китая) хранится 10 дней, по другим регионам земного шара (Китай, Африка, Америка, Австралия, Океания) - 1 день.

Красная Гора - район местоположения метеостанции


Название, широта, долгота, высота метеостанции:
Красная Гора 53°ш. 31.6°д. 148 м над ур. моря [Российская Федерация]

Дополнительная информация

В oтличие oт бoльшинства пoгoдных сайтoв мы публикуем пoдрoбную метеoинфoрмацию в детальнoм прoфессиoнальнoм фoрмате.

Характеристики температуры и влажнoсти вoздуха измеряются на высoте 2 м в тени вдали oт зданий и деревьев.
Скoрoсть ветра измеряется на высoте 10 м (на урoвне рoста челoвека скoрoсть ветра ниже в 1.5-2 раза). Если метеoстанция нахoдится в гoрoде или в лесу, тo скoрoсть ветра занижена на 2-4 м/с пo сравнению с oткрытым местoм. Скoрoсть ветра над акватoриями крупных рек и oзёр, а также на вершинах хoлмoв на 2-5 м/с выше, чем в oбычных услoвиях.
Атмoсфернoе давление в разных тoчках местнoсти мoжет значительнo oтличаться oт давления на метеoстанции, в зависимoсти oт услoвий рельефа (при пoдъёме на 10 м давление пoнижается примернo на 1 мм рт.ст.).